Location: Edinburgh
(55.9500°N, 3.1600°W)
Time: 21:30:46
(UTC+01:00)

Vanguard 1 Rocket - All Passes

Search period start: 16 July 2018 00:00
Search period end: 26 July 2018 00:00
Orbit: 652 x 4225 km, 34.3° (Epoch: 15 July)

Date Brightness Start Highest point End Pass type
(mag) Time Alt. Az. Time Alt. Az. Time Alt. Az.
16 Jul - 09:42:16 10° SSW 09:51:55 18° SSE 09:58:53 10° SE daylight
16 Jul - 12:08:13 10° SW 12:17:01 20° S 12:22:58 10° SE daylight
16 Jul - 14:38:17 10° SW 14:40:37 11° SSW 14:42:40 10° SSW daylight
17 Jul - 08:31:29 10° S 08:40:15 15° SSE 08:47:04 10° SE daylight
17 Jul - 10:55:02 10° SW 11:05:54 22° S 11:13:06 10° SE daylight
17 Jul - 13:23:34 10° WSW 13:30:17 17° SSW 13:35:07 10° SSE daylight
18 Jul - 07:23:56 10° SSE 07:28:26 11° SE 07:32:28 10° SE daylight
18 Jul - 09:42:17 10° SSW 09:54:25 22° SSE 10:02:40 10° ESE daylight
18 Jul - 12:09:45 10° SW 12:19:34 22° SSW 12:26:02 10° SE daylight
18 Jul - 14:41:34 10° SW 14:43:01 10° SW 14:44:21 10° SSW daylight
19 Jul - 08:30:24 10° SSW 08:42:38 19° SSE 08:51:28 10° ESE daylight
19 Jul - 10:56:06 10° SW 11:08:26 25° S 11:16:19 10° SE daylight
19 Jul - 13:25:42 10° WSW 13:32:44 17° SSW 13:37:48 10° SSE daylight
20 Jul - 07:20:10 10° S 07:30:39 16° SSE 07:38:59 10° ESE daylight
20 Jul - 09:42:47 10° SW 09:56:52 25° S 10:06:04 10° ESE daylight
20 Jul - 12:11:26 10° WSW 12:22:03 23° SSW 12:28:57 10° SSE daylight
21 Jul - 06:14:13 10° SSE 06:18:40 11° SE 06:22:46 10° SE daylight
21 Jul - 08:30:09 10° SSW 08:44:57 24° SSE 08:55:10 10° ESE daylight
21 Jul - 10:57:22 10° SW 11:10:54 27° S 11:19:22 10° SE daylight
21 Jul - 13:27:58 10° WSW 13:35:05 17° SSW 13:40:15 10° S daylight
22 Jul - 07:18:45 10° S 07:32:49 20° SSE 07:43:23 10° ESE daylight
22 Jul - 09:43:36 10° SW 09:59:16 29° S 10:09:14 10° ESE daylight
22 Jul - 12:13:15 10° WSW 12:24:27 24° SSW 12:31:42 10° SSE daylight
23 Jul - 06:09:30 10° S 06:20:38 15° SE 06:29:55 10° ESE daylight
23 Jul - 08:30:26 10° SSW 08:47:14 28° SSE 08:58:32 10° ESE daylight
23 Jul - 10:58:49 10° WSW 11:13:18 29° S 11:22:16 10° SE daylight
23 Jul - 13:30:25 10° WSW 13:37:19 16° SW 13:42:27 10° S daylight
24 Jul - 07:18:17 10° SSW 07:34:55 25° SSE 07:47:04 10° ESE daylight
24 Jul - 09:44:41 10° SW 10:01:36 31° S 10:12:14 10° SE daylight
24 Jul - 12:15:10 10° WSW 12:26:44 23° SSW 12:34:17 10° SSE daylight
25 Jul - 06:07:43 10° S 06:22:32 20° SE 06:34:29 10° ESE daylight
25 Jul - 08:31:05 10° SW 08:49:27 31° S 09:01:39 10° ESE daylight
25 Jul - 11:00:24 10° WSW 11:15:35 29° SSW 11:25:02 10° SE daylight
25 Jul - 13:33:08 10° WSW 13:39:25 14° SW 13:44:17 10° SSW daylight
